Year,Month,Day,Hour,Minute,Value (Times are PST for temperature in C)
2010,03,19,00,00,4.50
2010,03,19,00,01,4.50
2010,03,19,00,02,4.50
2010,03,19,00,03,4.50
2010,03,19,00,04,4.50
2010,03,19,00,05,4.50
2010,03,19,00,06,4.40
2010,03,19,00,07,4.40
2010,03,19,00,08,4.40
2010,03,19,00,09,4.40
2010,03,19,00,10,4.40
2010,03,19,00,11,4.40
2010,03,19,00,12,4.40
2010,03,19,00,13,4.40
2010,03,19,00,14,4.40
2010,03,19,00,15,4.40
2010,03,19,00,16,4.40
2010,03,19,00,17,4.40
2010,03,19,00,18,4.40
2010,03,19,00,19,4.40
2010,03,19,00,20,4.40
2010,03,19,00,21,4.30
2010,03,19,00,22,4.30
2010,03,19,00,23,4.30
2010,03,19,00,24,4.30
2010,03,19,00,25,4.20
2010,03,19,00,26,4.20
2010,03,19,00,27,4.20
2010,03,19,00,28,4.20
2010,03,19,00,29,4.20
2010,03,19,00,30,4.20
2010,03,19,00,31,4.20
2010,03,19,00,32,4.20
2010,03,19,00,33,4.20
2010,03,19,00,34,4.10
2010,03,19,00,35,4.10
2010,03,19,00,36,4.10
2010,03,19,00,37,4.10
2010,03,19,00,38,4.20
2010,03,19,00,39,4.20
2010,03,19,00,40,4.20
2010,03,19,00,41,4.20
2010,03,19,00,42,4.20
2010,03,19,00,43,4.20
2010,03,19,00,44,4.20
2010,03,19,00,45,4.20
2010,03,19,00,46,4.20
2010,03,19,00,47,4.10
2010,03,19,00,48,4.10
2010,03,19,00,49,4.10
2010,03,19,00,50,4.10
2010,03,19,00,51,4.10
2010,03,19,00,52,4.10
2010,03,19,00,53,4.00
2010,03,19,00,54,4.00
2010,03,19,00,55,4.00
2010,03,19,00,56,4.00
2010,03,19,00,57,4.00
2010,03,19,00,58,4.00
2010,03,19,00,59,3.90
2010,03,19,01,00,3.90
2010,03,19,01,01,3.90
2010,03,19,01,02,3.90
2010,03,19,01,03,3.90
2010,03,19,01,04,3.90
2010,03,19,01,05,3.90
2010,03,19,01,06,3.90
2010,03,19,01,07,3.90
2010,03,19,01,08,3.90
2010,03,19,01,09,3.90
2010,03,19,01,10,3.90
2010,03,19,01,11,3.90
2010,03,19,01,12,3.90
2010,03,19,01,13,3.90
2010,03,19,01,14,3.90
2010,03,19,01,15,3.90
2010,03,19,01,16,3.90
2010,03,19,01,17,3.90
2010,03,19,01,18,3.90
2010,03,19,01,19,3.90
2010,03,19,01,20,3.90
2010,03,19,01,21,3.80
2010,03,19,01,22,3.80
2010,03,19,01,23,3.80
2010,03,19,01,24,3.80
2010,03,19,01,25,3.80
2010,03,19,01,26,3.80
2010,03,19,01,27,3.70
2010,03,19,01,28,3.70
2010,03,19,01,29,3.70
2010,03,19,01,30,3.60
2010,03,19,01,31,3.60
2010,03,19,01,32,3.60
2010,03,19,01,33,3.60
2010,03,19,01,34,3.60
2010,03,19,01,35,3.50
2010,03,19,01,36,3.50
2010,03,19,01,37,3.50
2010,03,19,01,38,3.50
2010,03,19,01,39,3.50
2010,03,19,01,40,3.50
2010,03,19,01,41,3.50
2010,03,19,01,42,3.50
2010,03,19,01,43,3.40
2010,03,19,01,44,3.40
2010,03,19,01,45,3.40
2010,03,19,01,46,3.40
2010,03,19,01,47,3.40
2010,03,19,01,48,3.40
2010,03,19,01,49,3.40
2010,03,19,01,50,3.40
2010,03,19,01,51,3.40
2010,03,19,01,52,3.40
2010,03,19,01,53,3.40
2010,03,19,01,54,3.40
2010,03,19,01,55,3.50
2010,03,19,01,56,3.50
2010,03,19,01,57,3.50
2010,03,19,01,58,3.50
2010,03,19,01,59,3.50
2010,03,19,02,00,3.60
2010,03,19,02,01,3.60
2010,03,19,02,02,3.60
2010,03,19,02,03,3.60
2010,03,19,02,04,3.70
2010,03,19,02,05,3.80
2010,03,19,02,06,3.80
2010,03,19,02,07,3.90
2010,03,19,02,08,3.90
2010,03,19,02,09,4.00
2010,03,19,02,10,4.00
2010,03,19,02,11,4.00
2010,03,19,02,12,4.10
2010,03,19,02,13,4.10
2010,03,19,02,14,4.10
2010,03,19,02,15,4.20
2010,03,19,02,16,4.20
2010,03,19,02,17,4.20
2010,03,19,02,18,4.20
2010,03,19,02,19,4.20
2010,03,19,02,20,4.10
2010,03,19,02,21,4.10
2010,03,19,02,22,4.10
2010,03,19,02,23,4.00
2010,03,19,02,24,4.00
2010,03,19,02,25,4.00
2010,03,19,02,26,3.90
2010,03,19,02,27,3.90
2010,03,19,02,28,3.90
2010,03,19,02,29,3.80
2010,03,19,02,30,3.80
2010,03,19,02,31,3.80
2010,03,19,02,32,3.70
2010,03,19,02,33,3.70
2010,03,19,02,34,3.60
2010,03,19,02,35,3.60
2010,03,19,02,36,3.60
2010,03,19,02,37,3.50
2010,03,19,02,38,3.50
2010,03,19,02,39,3.40
2010,03,19,02,40,3.40
2010,03,19,02,41,3.30
2010,03,19,02,42,3.30
2010,03,19,02,43,3.30
2010,03,19,02,44,3.30
2010,03,19,02,45,3.30
2010,03,19,02,46,3.40
2010,03,19,02,47,3.50
2010,03,19,02,48,3.50
2010,03,19,02,49,3.60
2010,03,19,02,50,3.60
2010,03,19,02,51,3.70
2010,03,19,02,52,3.70
2010,03,19,02,53,3.70
2010,03,19,02,54,3.80
2010,03,19,02,55,3.80
2010,03,19,02,56,3.80
2010,03,19,02,57,3.80
2010,03,19,02,58,3.80
2010,03,19,02,59,3.80
2010,03,19,03,00,3.80
2010,03,19,03,01,3.80
2010,03,19,03,02,3.80
2010,03,19,03,03,3.80
2010,03,19,03,04,3.80
2010,03,19,03,05,3.80
2010,03,19,03,06,3.80
2010,03,19,03,07,3.80
2010,03,19,03,08,3.80
2010,03,19,03,09,3.80
2010,03,19,03,10,3.80
2010,03,19,03,11,3.80
2010,03,19,03,12,3.80
2010,03,19,03,13,3.80
2010,03,19,03,14,3.80
2010,03,19,03,15,3.80
2010,03,19,03,16,3.80
2010,03,19,03,17,3.90
2010,03,19,03,18,3.90
2010,03,19,03,19,3.90
2010,03,19,03,20,3.90
2010,03,19,03,21,3.90
2010,03,19,03,22,4.00
2010,03,19,03,23,4.00
2010,03,19,03,24,4.00
2010,03,19,03,25,4.00
2010,03,19,03,26,4.00
2010,03,19,03,27,4.00
2010,03,19,03,28,4.00
2010,03,19,03,29,4.00
2010,03,19,03,30,4.00
2010,03,19,03,31,4.10
2010,03,19,03,32,4.10
2010,03,19,03,33,4.10
2010,03,19,03,34,4.10
2010,03,19,03,35,4.10
2010,03,19,03,36,4.10
2010,03,19,03,37,4.10
2010,03,19,03,38,4.10
2010,03,19,03,39,4.10
2010,03,19,03,40,4.10
2010,03,19,03,41,4.10
2010,03,19,03,42,4.10
2010,03,19,03,43,4.20
2010,03,19,03,44,4.20
2010,03,19,03,45,4.20
2010,03,19,03,46,4.20
2010,03,19,03,47,4.20
2010,03,19,03,48,4.20
2010,03,19,03,49,4.30
2010,03,19,03,50,4.30
2010,03,19,03,51,4.30
2010,03,19,03,52,4.30
2010,03,19,03,53,4.30
2010,03,19,03,54,4.30
2010,03,19,03,55,4.30
2010,03,19,03,56,4.30
2010,03,19,03,57,4.30
2010,03,19,03,58,4.30
2010,03,19,03,59,4.20
2010,03,19,04,00,4.20
2010,03,19,04,01,4.20
2010,03,19,04,02,4.20
2010,03,19,04,03,4.10
2010,03,19,04,04,4.10
2010,03,19,04,05,4.10
2010,03,19,04,06,4.00
2010,03,19,04,07,4.00
2010,03,19,04,08,4.00
2010,03,19,04,09,4.00
2010,03,19,04,10,3.90
2010,03,19,04,11,3.90
2010,03,19,04,12,3.90
2010,03,19,04,13,3.80
2010,03,19,04,14,3.80
2010,03,19,04,15,3.80
2010,03,19,04,16,3.80
2010,03,19,04,17,3.80
2010,03,19,04,18,3.80
2010,03,19,04,19,3.80
2010,03,19,04,20,3.80
2010,03,19,04,21,3.80
2010,03,19,04,22,3.80
2010,03,19,04,23,3.80
2010,03,19,04,24,3.80
2010,03,19,04,25,3.70
2010,03,19,04,26,3.70
2010,03,19,04,27,3.60
2010,03,19,04,28,3.60
2010,03,19,04,29,3.60
2010,03,19,04,30,3.60
2010,03,19,04,31,3.60
2010,03,19,04,32,3.60
2010,03,19,04,33,3.60
2010,03,19,04,34,3.70
2010,03,19,04,35,3.70
2010,03,19,04,36,3.80
2010,03,19,04,37,3.90
2010,03,19,04,38,4.00
2010,03,19,04,39,4.00
2010,03,19,04,40,4.20
2010,03,19,04,41,4.20
2010,03,19,04,42,4.30
2010,03,19,04,43,4.40
2010,03,19,04,44,4.40
2010,03,19,04,45,4.50
2010,03,19,04,46,4.50
2010,03,19,04,47,4.50
2010,03,19,04,48,4.50
2010,03,19,04,49,4.50
2010,03,19,04,50,4.50
2010,03,19,04,51,4.50
2010,03,19,04,52,4.40
2010,03,19,04,53,4.40
2010,03,19,04,54,4.40
2010,03,19,04,55,4.40
2010,03,19,04,56,4.40
2010,03,19,04,57,4.40
2010,03,19,04,58,4.40
2010,03,19,04,59,4.40
2010,03,19,05,00,4.50
2010,03,19,05,01,4.50
2010,03,19,05,02,4.60
2010,03,19,05,03,4.60
2010,03,19,05,04,4.60
2010,03,19,05,05,4.70
2010,03,19,05,06,4.70
2010,03,19,05,07,4.80
2010,03,19,05,08,4.80
2010,03,19,05,09,4.90
2010,03,19,05,10,4.90
2010,03,19,05,11,4.90
2010,03,19,05,12,4.90
2010,03,19,05,13,5.00
2010,03,19,05,14,5.10
2010,03,19,05,15,5.10
2010,03,19,05,16,5.10
2010,03,19,05,17,5.10
2010,03,19,05,18,5.10
2010,03,19,05,19,5.10
2010,03,19,05,20,5.10
2010,03,19,05,21,5.10
2010,03,19,05,22,5.20
2010,03,19,05,23,5.20
2010,03,19,05,24,5.10
2010,03,19,05,25,5.10
2010,03,19,05,26,5.10
2010,03,19,05,27,5.10
2010,03,19,05,28,5.10
2010,03,19,05,29,5.10
2010,03,19,05,30,5.10
2010,03,19,05,31,5.10
2010,03,19,05,32,5.10
2010,03,19,05,33,5.00
2010,03,19,05,34,4.90
2010,03,19,05,35,4.90
2010,03,19,05,36,4.90
2010,03,19,05,37,4.90
2010,03,19,05,38,4.90
2010,03,19,05,39,4.90
2010,03,19,05,40,4.80
2010,03,19,05,41,4.80
2010,03,19,05,42,4.80
2010,03,19,05,43,4.70
2010,03,19,05,44,4.70
2010,03,19,05,45,4.60
2010,03,19,05,46,4.60
2010,03,19,05,47,4.60
2010,03,19,05,48,4.60
2010,03,19,05,49,4.60
2010,03,19,05,50,4.50
2010,03,19,05,51,4.50
2010,03,19,05,52,4.50
2010,03,19,05,53,4.50
2010,03,19,05,54,4.40
2010,03,19,05,55,4.40
2010,03,19,05,56,4.40
2010,03,19,05,57,4.30
2010,03,19,05,58,4.30
2010,03,19,05,59,4.30
2010,03,19,06,00,4.30
2010,03,19,06,01,4.30
2010,03,19,06,02,4.40
2010,03,19,06,03,4.40
2010,03,19,06,04,4.40
2010,03,19,06,05,4.50
2010,03,19,06,06,4.50
2010,03,19,06,07,4.50
2010,03,19,06,08,4.60
2010,03,19,06,09,4.60
2010,03,19,06,10,4.60
2010,03,19,06,11,4.60
2010,03,19,06,12,4.60
2010,03,19,06,13,4.60
2010,03,19,06,14,4.60
2010,03,19,06,15,4.60
2010,03,19,06,16,4.60
2010,03,19,06,17,4.60
2010,03,19,06,18,4.60
2010,03,19,06,19,4.60
2010,03,19,06,20,4.60
2010,03,19,06,21,4.60
2010,03,19,06,22,4.60
2010,03,19,06,23,4.60
2010,03,19,06,24,4.60
2010,03,19,06,25,4.60
2010,03,19,06,26,4.60
2010,03,19,06,27,4.50
2010,03,19,06,28,4.50
2010,03,19,06,29,4.50
2010,03,19,06,30,4.40
2010,03,19,06,31,4.40
2010,03,19,06,32,4.30
2010,03,19,06,33,4.20
2010,03,19,06,34,4.20
2010,03,19,06,35,4.10
2010,03,19,06,36,4.10
2010,03,19,06,37,4.00
2010,03,19,06,38,4.00
2010,03,19,06,39,3.90
2010,03,19,06,40,3.90
2010,03,19,06,41,3.80
2010,03,19,06,42,3.80
2010,03,19,06,43,3.80
2010,03,19,06,44,3.80
2010,03,19,06,45,3.70
2010,03,19,06,46,3.70
2010,03,19,06,47,3.70
2010,03,19,06,48,3.60
2010,03,19,06,49,3.60
2010,03,19,06,50,3.60
2010,03,19,06,51,3.50
2010,03,19,06,52,3.50
2010,03,19,06,53,3.50
2010,03,19,06,54,3.40
2010,03,19,06,55,3.40
2010,03,19,06,56,3.40
2010,03,19,06,57,3.40
2010,03,19,06,58,3.40
2010,03,19,06,59,3.40
2010,03,19,07,00,3.30
2010,03,19,07,01,3.30
2010,03,19,07,02,3.30
2010,03,19,07,03,3.30
2010,03,19,07,04,3.20
2010,03,19,07,05,3.10
2010,03,19,07,06,3.10
2010,03,19,07,07,3.10
2010,03,19,07,08,2.90
2010,03,19,07,09,2.90
2010,03,19,07,10,2.90
2010,03,19,07,11,2.80
2010,03,19,07,12,2.70
2010,03,19,07,13,2.70
2010,03,19,07,14,2.70
2010,03,19,07,15,2.60
2010,03,19,07,16,2.60
2010,03,19,07,17,2.50
2010,03,19,07,18,2.50
2010,03,19,07,19,2.50
2010,03,19,07,20,2.40
2010,03,19,07,21,2.40
2010,03,19,07,22,2.40
2010,03,19,07,23,2.40
2010,03,19,07,24,2.40
2010,03,19,07,25,2.40
2010,03,19,07,26,2.40
2010,03,19,07,27,2.40
2010,03,19,07,28,2.40
2010,03,19,07,29,2.50
2010,03,19,07,30,2.50
2010,03,19,07,31,2.50
2010,03,19,07,32,2.50
2010,03,19,07,33,2.60
2010,03,19,07,34,2.60
2010,03,19,07,35,2.60
2010,03,19,07,36,2.50
2010,03,19,07,37,2.50
2010,03,19,07,38,2.50
2010,03,19,07,39,2.50
2010,03,19,07,40,2.50
2010,03,19,07,41,2.50
2010,03,19,07,42,2.50
2010,03,19,07,43,2.50
2010,03,19,07,44,2.50
2010,03,19,07,45,2.50
2010,03,19,07,46,2.50
2010,03,19,07,47,2.50
2010,03,19,07,48,2.50
2010,03,19,07,49,2.50
2010,03,19,07,50,2.50
2010,03,19,07,51,2.50
2010,03,19,07,52,2.50
2010,03,19,07,53,2.50
2010,03,19,07,54,2.50
2010,03,19,07,55,2.50
2010,03,19,07,56,2.50
2010,03,19,07,57,2.50
2010,03,19,07,58,2.60
2010,03,19,07,59,2.60
2010,03,19,08,00,2.60
2010,03,19,08,01,2.70
2010,03,19,08,02,2.70
2010,03,19,08,03,2.80
2010,03,19,08,04,2.90
2010,03,19,08,05,3.00
2010,03,19,08,06,3.10
2010,03,19,08,07,3.30
2010,03,19,08,08,3.30
2010,03,19,08,09,3.50
2010,03,19,08,10,3.60
2010,03,19,08,11,3.80
2010,03,19,08,12,3.90
2010,03,19,08,13,4.00
2010,03,19,08,14,4.10
2010,03,19,08,15,4.20
2010,03,19,08,16,4.40
2010,03,19,08,17,4.50
2010,03,19,08,18,4.60
2010,03,19,08,19,4.70
2010,03,19,08,20,4.80
2010,03,19,08,21,4.90
2010,03,19,08,22,5.00
2010,03,19,08,23,5.10
2010,03,19,08,24,5.20
2010,03,19,08,25,5.30
2010,03,19,08,26,5.30
2010,03,19,08,27,5.40
2010,03,19,08,28,5.50
2010,03,19,08,29,5.50
2010,03,19,08,30,5.50
2010,03,19,08,31,5.60
2010,03,19,08,32,5.60
2010,03,19,08,33,5.70
2010,03,19,08,34,5.70
2010,03,19,08,35,5.70
2010,03,19,08,36,5.70
2010,03,19,08,37,5.80
2010,03,19,08,38,5.80
2010,03,19,08,39,5.90
2010,03,19,08,40,5.90
2010,03,19,08,41,5.90
2010,03,19,08,42,5.90
2010,03,19,08,43,5.90
2010,03,19,08,44,6.00
2010,03,19,08,45,6.00
2010,03,19,08,46,6.00
2010,03,19,08,47,6.10
2010,03,19,08,48,6.10
2010,03,19,08,49,6.20
2010,03,19,08,50,6.20
2010,03,19,08,51,6.20
2010,03,19,08,52,6.30
2010,03,19,08,53,6.30
2010,03,19,08,54,6.40
2010,03,19,08,55,6.40
2010,03,19,08,56,6.50
2010,03,19,08,57,6.60
2010,03,19,08,58,6.60
2010,03,19,08,59,6.70
2010,03,19,09,00,6.80
2010,03,19,09,01,6.80
2010,03,19,09,02,6.90
2010,03,19,09,03,7.00
2010,03,19,09,04,7.00
2010,03,19,09,05,7.10
2010,03,19,09,06,7.20
2010,03,19,09,07,7.20
2010,03,19,09,08,7.30
2010,03,19,09,09,7.30
2010,03,19,09,10,7.40
2010,03,19,09,11,7.50
2010,03,19,09,12,7.50
2010,03,19,09,13,7.60
2010,03,19,09,14,7.70
2010,03,19,09,15,7.70
2010,03,19,09,16,7.80
2010,03,19,09,17,7.80
2010,03,19,09,18,7.80
2010,03,19,09,19,7.80
2010,03,19,09,20,7.80
2010,03,19,09,21,7.90
2010,03,19,09,22,7.90
2010,03,19,09,23,7.90
2010,03,19,09,24,7.90
2010,03,19,09,25,7.90
2010,03,19,09,26,7.90
2010,03,19,09,27,8.00
2010,03,19,09,28,8.00
2010,03,19,09,29,8.00
2010,03,19,09,30,8.00
2010,03,19,09,31,8.00
2010,03,19,09,32,8.10
2010,03,19,09,33,8.10
2010,03,19,09,34,8.20
2010,03,19,09,35,8.20
2010,03,19,09,36,8.20
2010,03,19,09,37,8.30
2010,03,19,09,38,8.30
2010,03,19,09,39,8.40
2010,03,19,09,40,8.40
2010,03,19,09,41,8.40
2010,03,19,09,42,8.50
2010,03,19,09,43,8.50
2010,03,19,09,44,8.50
2010,03,19,09,45,8.50
2010,03,19,09,46,8.50
2010,03,19,09,47,8.50
2010,03,19,09,48,8.50
2010,03,19,09,49,8.50
2010,03,19,09,50,8.60
2010,03,19,09,51,8.60
2010,03,19,09,52,8.60
2010,03,19,09,53,8.70
2010,03,19,09,54,8.70
2010,03,19,09,55,8.70
2010,03,19,09,56,8.80
2010,03,19,09,57,8.80
2010,03,19,09,58,8.90
2010,03,19,09,59,8.90
2010,03,19,10,00,8.90
2010,03,19,10,01,8.90
2010,03,19,10,02,8.90
2010,03,19,10,03,9.00
2010,03,19,10,04,9.00
2010,03,19,10,05,9.00
2010,03,19,10,06,9.10
2010,03,19,10,07,9.10
2010,03,19,10,08,9.20
2010,03,19,10,09,9.20
2010,03,19,10,10,9.20
2010,03,19,10,11,9.30
2010,03,19,10,12,9.40
2010,03,19,10,13,9.40
2010,03,19,10,14,9.40
2010,03,19,10,15,9.50
2010,03,19,10,16,9.50
2010,03,19,10,17,9.50
2010,03,19,10,18,9.50
2010,03,19,10,19,9.50
2010,03,19,10,20,9.50
2010,03,19,10,21,9.50
2010,03,19,10,22,9.60
2010,03,19,10,23,9.60
2010,03,19,10,24,9.70
2010,03,19,10,25,9.70
2010,03,19,10,26,9.80
2010,03,19,10,27,9.80
2010,03,19,10,28,9.80
2010,03,19,10,29,9.90
2010,03,19,10,30,9.90
2010,03,19,10,31,9.90
2010,03,19,10,32,9.90
2010,03,19,10,33,9.90
2010,03,19,10,34,9.90
2010,03,19,10,35,9.90
2010,03,19,10,36,10.00
2010,03,19,10,37,10.10
2010,03,19,10,38,10.10
2010,03,19,10,39,10.00
2010,03,19,10,40,9.90
2010,03,19,10,41,9.90
2010,03,19,10,42,9.90
2010,03,19,10,43,9.90
2010,03,19,10,44,9.90
2010,03,19,10,45,9.90
2010,03,19,10,46,9.80
2010,03,19,10,47,9.80
2010,03,19,10,48,9.80
2010,03,19,10,49,9.80
2010,03,19,10,50,9.80
2010,03,19,10,51,9.80
2010,03,19,10,52,9.80
2010,03,19,10,53,9.80
2010,03,19,10,54,9.90
2010,03,19,10,55,9.90
2010,03,19,10,56,9.90
2010,03,19,10,57,9.90
2010,03,19,10,58,10.00
2010,03,19,10,59,10.10
2010,03,19,11,00,10.20
2010,03,19,11,01,10.20
2010,03,19,11,02,10.10
2010,03,19,11,03,10.10
2010,03,19,11,04,10.10
2010,03,19,11,05,10.10
2010,03,19,11,06,10.10
2010,03,19,11,07,10.10
2010,03,19,11,08,10.10
2010,03,19,11,09,10.10
2010,03,19,11,10,10.10
2010,03,19,11,11,10.10
2010,03,19,11,12,10.10
2010,03,19,11,13,10.20
2010,03,19,11,14,10.20
2010,03,19,11,15,10.30
2010,03,19,11,16,10.30
2010,03,19,11,17,10.30
2010,03,19,11,18,10.40
2010,03,19,11,19,10.40
2010,03,19,11,20,10.40
2010,03,19,11,21,10.40
2010,03,19,11,22,10.40
2010,03,19,11,23,10.40
2010,03,19,11,24,10.40
2010,03,19,11,25,10.40
2010,03,19,11,26,10.40
2010,03,19,11,27,10.40
2010,03,19,11,28,10.50
2010,03,19,11,29,10.60
2010,03,19,11,30,10.60
2010,03,19,11,31,10.40
2010,03,19,11,32,10.40
2010,03,19,11,33,10.30
2010,03,19,11,34,10.20
2010,03,19,11,35,10.20
2010,03,19,11,36,10.30
2010,03,19,11,37,10.30
2010,03,19,11,38,10.30
2010,03,19,11,39,10.40
2010,03,19,11,40,10.40
2010,03,19,11,41,10.50
2010,03,19,11,42,10.60
2010,03,19,11,43,10.60
2010,03,19,11,44,10.70
2010,03,19,11,45,10.70
2010,03,19,11,46,10.60
2010,03,19,11,47,10.60
2010,03,19,11,48,10.60
2010,03,19,11,49,10.50
2010,03,19,11,50,10.40
2010,03,19,11,51,10.40
2010,03,19,11,52,10.40
2010,03,19,11,53,10.40
2010,03,19,11,54,10.50
2010,03,19,11,55,10.40
2010,03,19,11,56,10.50
2010,03,19,11,57,10.60
2010,03,19,11,58,10.60
2010,03,19,11,59,10.70
2010,03,19,12,00,10.70
2010,03,19,12,01,10.70
2010,03,19,12,02,10.70
2010,03,19,12,03,10.70
2010,03,19,12,04,10.70
2010,03,19,12,05,10.70
2010,03,19,12,06,10.80
2010,03,19,12,07,10.80
2010,03,19,12,08,10.90
2010,03,19,12,09,10.90
2010,03,19,12,10,10.90
2010,03,19,12,11,11.00
2010,03,19,12,12,11.10
2010,03,19,12,13,11.20
2010,03,19,12,14,11.30
2010,03,19,12,15,11.40
2010,03,19,12,16,11.30
2010,03,19,12,17,11.30
2010,03,19,12,18,11.30
2010,03,19,12,19,11.30
2010,03,19,12,20,11.30
2010,03,19,12,21,11.40
2010,03,19,12,22,11.40
2010,03,19,12,23,11.40
2010,03,19,12,24,11.40
2010,03,19,12,25,11.40
2010,03,19,12,26,11.40
2010,03,19,12,27,11.40
2010,03,19,12,28,11.40
2010,03,19,12,29,11.40
2010,03,19,12,30,11.40
2010,03,19,12,31,11.40
2010,03,19,12,32,11.40
2010,03,19,12,33,11.40
2010,03,19,12,34,11.40
2010,03,19,12,35,11.40
2010,03,19,12,36,11.40
2010,03,19,12,37,11.40
2010,03,19,12,38,11.40
2010,03,19,12,39,11.40
2010,03,19,12,40,11.30
2010,03,19,12,41,11.20
2010,03,19,12,42,11.10
2010,03,19,12,43,11.00
2010,03,19,12,44,10.90
2010,03,19,12,45,10.90
2010,03,19,12,46,10.90
2010,03,19,12,47,10.90
2010,03,19,12,48,10.90
2010,03,19,12,49,10.80
2010,03,19,12,50,10.90
2010,03,19,12,51,10.90
2010,03,19,12,52,10.90
2010,03,19,12,53,11.00
2010,03,19,12,54,11.10
2010,03,19,12,55,11.10
2010,03,19,12,56,11.10
2010,03,19,12,57,11.10
2010,03,19,12,58,11.10
2010,03,19,12,59,11.10
2010,03,19,13,00,11.00
2010,03,19,13,01,10.90
2010,03,19,13,02,10.90
2010,03,19,13,03,10.90
2010,03,19,13,04,10.90
2010,03,19,13,05,10.90
2010,03,19,13,06,10.90
2010,03,19,13,07,11.00
2010,03,19,13,08,11.10
2010,03,19,13,09,11.10
2010,03,19,13,10,11.20
2010,03,19,13,11,11.20
2010,03,19,13,12,11.10
2010,03,19,13,13,11.10
2010,03,19,13,14,11.10
2010,03,19,13,15,11.10
2010,03,19,13,16,11.10
2010,03,19,13,17,11.10
2010,03,19,13,18,11.10
2010,03,19,13,19,11.10
2010,03,19,13,20,11.10
2010,03,19,13,21,11.10
2010,03,19,13,22,11.20
2010,03,19,13,23,11.20
2010,03,19,13,24,11.30
2010,03,19,13,25,11.30
2010,03,19,13,26,11.40
2010,03,19,13,27,11.40
2010,03,19,13,28,11.40
2010,03,19,13,29,11.40
2010,03,19,13,30,11.40
2010,03,19,13,31,11.30
2010,03,19,13,32,11.30
2010,03,19,13,33,11.30
2010,03,19,13,34,11.30
2010,03,19,13,35,11.30
2010,03,19,13,36,11.40
2010,03,19,13,37,11.40
2010,03,19,13,38,11.40
2010,03,19,13,39,11.40
2010,03,19,13,40,11.40
2010,03,19,13,41,11.40
2010,03,19,13,42,11.50
2010,03,19,13,43,11.60
2010,03,19,13,44,11.60
2010,03,19,13,45,11.60
2010,03,19,13,46,11.60
2010,03,19,13,47,11.60
2010,03,19,13,48,11.60
2010,03,19,13,49,11.60
2010,03,19,13,50,11.60
2010,03,19,13,51,11.60
2010,03,19,13,52,11.70
2010,03,19,13,53,11.70
2010,03,19,13,54,11.70
2010,03,19,13,55,11.80
2010,03,19,13,56,11.80
2010,03,19,13,57,11.80
2010,03,19,13,58,11.80
2010,03,19,13,59,11.90
2010,03,19,14,00,11.90
2010,03,19,14,01,11.90
2010,03,19,14,02,11.90
2010,03,19,14,03,11.90
2010,03,19,14,04,12.00
2010,03,19,14,05,11.90
2010,03,19,14,06,11.80
2010,03,19,14,07,11.80
2010,03,19,14,08,11.80
2010,03,19,14,09,11.90
2010,03,19,14,10,11.90
2010,03,19,14,11,11.90
2010,03,19,14,12,11.90
2010,03,19,14,13,12.00
2010,03,19,14,14,12.00
2010,03,19,14,15,12.10
2010,03,19,14,16,12.20
2010,03,19,14,17,12.20
2010,03,19,14,18,12.30
2010,03,19,14,19,12.30
2010,03,19,14,20,12.20
2010,03,19,14,21,12.20
2010,03,19,14,22,12.20
2010,03,19,14,23,12.20
2010,03,19,14,24,12.30
2010,03,19,14,25,12.30
2010,03,19,14,26,12.40
2010,03,19,14,27,12.40
2010,03,19,14,28,12.40
2010,03,19,14,29,12.30
2010,03,19,14,30,12.30
2010,03,19,14,31,12.30
2010,03,19,14,32,12.30
2010,03,19,14,33,12.30
2010,03,19,14,34,12.30
2010,03,19,14,35,12.30
2010,03,19,14,36,12.30
2010,03,19,14,37,12.20
2010,03,19,14,38,12.20
2010,03,19,14,39,12.10
2010,03,19,14,40,12.00
2010,03,19,14,41,12.00
2010,03,19,14,42,11.90
2010,03,19,14,43,11.80
2010,03,19,14,44,11.90
2010,03,19,14,45,11.90
2010,03,19,14,46,11.90
2010,03,19,14,47,11.90
2010,03,19,14,48,12.00
2010,03,19,14,49,12.00
2010,03,19,14,50,12.00
2010,03,19,14,51,12.00
2010,03,19,14,52,12.00
2010,03,19,14,53,12.00
2010,03,19,14,54,12.00
2010,03,19,14,55,12.10
2010,03,19,14,56,12.10
2010,03,19,14,57,12.10
2010,03,19,14,58,12.10
2010,03,19,14,59,12.20
2010,03,19,15,00,12.10
2010,03,19,15,01,12.10
2010,03,19,15,02,12.10
2010,03,19,15,03,12.10
2010,03,19,15,04,12.10
2010,03,19,15,05,12.10
2010,03,19,15,06,12.20
2010,03,19,15,07,12.20
2010,03,19,15,08,12.20
2010,03,19,15,09,12.20
2010,03,19,15,10,12.20
2010,03,19,15,11,12.20
2010,03,19,15,12,12.30
2010,03,19,15,13,12.30
2010,03,19,15,14,12.30
2010,03,19,15,15,12.30
2010,03,19,15,16,12.30
2010,03,19,15,17,12.40
2010,03,19,15,18,12.40
2010,03,19,15,19,12.50
2010,03,19,15,20,12.60
2010,03,19,15,21,12.70
2010,03,19,15,22,12.70
2010,03,19,15,23,12.80
2010,03,19,15,24,12.80
2010,03,19,15,25,12.90
2010,03,19,15,26,12.90
2010,03,19,15,27,12.90
2010,03,19,15,28,12.90
2010,03,19,15,29,12.90
2010,03,19,15,30,12.90
2010,03,19,15,31,13.00
2010,03,19,15,32,13.00
2010,03,19,15,33,13.00
2010,03,19,15,34,13.00
2010,03,19,15,35,13.00
2010,03,19,15,36,12.90
2010,03,19,15,37,12.90
2010,03,19,15,38,12.90
2010,03,19,15,39,12.90
2010,03,19,15,40,12.90
2010,03,19,15,41,12.90
2010,03,19,15,42,12.90
2010,03,19,15,43,12.80
2010,03,19,15,44,12.80
2010,03,19,15,45,12.80
2010,03,19,15,46,12.80
2010,03,19,15,47,12.90
2010,03,19,15,48,12.90
2010,03,19,15,49,12.90
2010,03,19,15,50,12.90
2010,03,19,15,51,12.90
2010,03,19,15,52,13.00
2010,03,19,15,53,13.00
2010,03,19,15,54,12.90
2010,03,19,15,55,12.90
2010,03,19,15,56,12.80
2010,03,19,15,57,12.80
2010,03,19,15,58,12.80
2010,03,19,15,59,12.80
2010,03,19,16,00,12.80
2010,03,19,16,01,12.80
2010,03,19,16,02,12.80
2010,03,19,16,03,12.80
2010,03,19,16,04,12.90
2010,03,19,16,05,12.90
2010,03,19,16,06,13.00
2010,03,19,16,07,13.00
2010,03,19,16,08,13.00
2010,03,19,16,09,13.00
2010,03,19,16,10,13.00
2010,03,19,16,11,13.00
2010,03,19,16,12,13.00
2010,03,19,16,13,13.00
2010,03,19,16,14,13.00
2010,03,19,16,15,13.10
2010,03,19,16,16,13.10
2010,03,19,16,17,13.20
2010,03,19,16,18,13.20
2010,03,19,16,19,13.20
2010,03,19,16,20,13.20
2010,03,19,16,21,13.20
2010,03,19,16,22,13.20
2010,03,19,16,23,13.20
2010,03,19,16,24,13.20
2010,03,19,16,25,13.20
2010,03,19,16,26,13.10
2010,03,19,16,27,13.10
2010,03,19,16,28,13.00
2010,03,19,16,29,12.90
2010,03,19,16,30,12.90
2010,03,19,16,31,12.90
2010,03,19,16,32,13.00
2010,03,19,16,33,13.00
2010,03,19,16,34,12.90
2010,03,19,16,35,12.90
2010,03,19,16,36,12.90
2010,03,19,16,37,12.90
2010,03,19,16,38,12.90
2010,03,19,16,39,12.90
2010,03,19,16,40,12.90
2010,03,19,16,41,12.90
2010,03,19,16,42,12.90
2010,03,19,16,43,12.80
2010,03,19,16,44,12.80
2010,03,19,16,45,12.80
2010,03,19,16,46,12.80
2010,03,19,16,47,12.80
2010,03,19,16,48,12.80
2010,03,19,16,49,12.80
2010,03,19,16,50,12.80
2010,03,19,16,51,12.80
2010,03,19,16,52,12.80
2010,03,19,16,53,12.80
2010,03,19,16,54,12.80
2010,03,19,16,55,12.80
2010,03,19,16,56,12.80
2010,03,19,16,57,12.80
2010,03,19,16,58,12.80
2010,03,19,16,59,12.80
2010,03,19,17,00,12.80
2010,03,19,17,01,12.80
2010,03,19,17,02,12.80
2010,03,19,17,03,12.80
2010,03,19,17,04,12.80
2010,03,19,17,05,12.80
2010,03,19,17,06,12.80
2010,03,19,17,07,12.90
2010,03,19,17,08,12.90
2010,03,19,17,09,12.90
2010,03,19,17,10,12.80
2010,03,19,17,11,12.80
2010,03,19,17,12,12.80
2010,03,19,17,13,12.80
2010,03,19,17,14,12.90
2010,03,19,17,15,12.90
2010,03,19,17,16,12.90
2010,03,19,17,17,12.90
2010,03,19,17,18,13.00
2010,03,19,17,19,13.00
2010,03,19,17,20,13.00
2010,03,19,17,21,13.00
2010,03,19,17,22,13.00
2010,03,19,17,23,13.00
2010,03,19,17,24,13.00
2010,03,19,17,25,13.00
2010,03,19,17,26,12.90
2010,03,19,17,27,12.90
2010,03,19,17,28,12.90
2010,03,19,17,29,12.90
2010,03,19,17,30,12.90
2010,03,19,17,31,12.90
2010,03,19,17,32,12.90
2010,03,19,17,33,12.80
2010,03,19,17,34,12.80
2010,03,19,17,35,12.80
2010,03,19,17,36,12.80
2010,03,19,17,37,12.80
2010,03,19,17,38,12.80
2010,03,19,17,39,12.80
2010,03,19,17,40,12.80
2010,03,19,17,41,12.80
2010,03,19,17,42,12.80
2010,03,19,17,43,12.80
2010,03,19,17,44,12.80
2010,03,19,17,45,12.80
2010,03,19,17,46,12.80
2010,03,19,17,47,12.80